Regional Weather Roundup
Issued by NWS

Home | Current Version | Previous Version | Graphics & Text | Print | Product List | Glossary On
Versions: 1 2 3 4 5 6 7 8 9 10 11 12 13 14 15 16 17 18 19 20 21 22 23 24 25 26 27 28 29 30 31 32 33 34 35 36 37 38 39 40 41 42 43 44 45 46 47 48 49 50
392
ASUS44 KLIX 262310
RWRLA
LOUISIANA WEATHER ROUNDUP
NATIONAL WEATHER SERVICE NEW ORLEANS LA
500 PM CST WED NOV 26 2014

NOTE: "FAIR" INDICATES FEW OR NO CLOUDS BELOW 12,000 FEET WITH NO
      SIGNIFICANT WEATHER AND/OR OBSTRUCTIONS TO VISIBILITY.
      SKY/WX - SKY CONDITION AND SIGNIFICANT WEATHER.
      TMP - AIR TEMPERATURE.    DP   - DEWPOINT TEMPERATURE.
      RH  - RELATIVE HUMIDITY.  PRES - PRESSURE.
      HX  - HEAT INDEX.         WCI  - WIND CHILL INDEX.

*  THESE STATIONS ARE NOT NWS OR FAA STATIONS AND ARE NOT UNDER
   NWS QUALITY CONTROL.

LAZ040-048-061>063-065-066-069-270000-
SOUTHEAST LOUISIANA

CITY           SKY/WX    TMP DP  RH WIND       PRES   REMARKS
N.O. AUDUBON     N/A     62  41  47 MISG        N/A
N.O. INTL ARPT PTCLDY    64  38  38 SW14      30.19R
N.O. LAKEFRONT CLEAR     64  41  42 SW17      30.19R
N.O. DOWNTOWN* FAIR      64  37  36 SW8       30.20R
SLIDELL        CLEAR     62  41  46 SW3       30.16S
BATON ROUGE    CLEAR     65  36  34 SW13      30.16S
BOOTHVILLE     CLEAR     60  45  57 SW8       30.21F
BELLE CHASSE   PTCLDY    61  39  44 SW6       30.19R
BOGALUSA*        N/A     61  38  42 SW6       30.16S
NEW ROADS*     FAIR      64  40  40 SW8       30.16S
GONZALES*      FAIR      64  41  42 SW8       30.19R
HAMMOND*       CLEAR     66  32  28 SW6       30.17S
HOUMA*         CLEAR     63  43  48 SW5       30.21R
PORT FOURCHON* CLEAR     63  46  55 W8        30.25S

$$

LAZ041-044-053-054-270000-
SOUTHWEST LOUISIANA

CITY           SKY/WX    TMP DP  RH WIND       PRES   REMARKS
LAKE CHARLES   CLEAR     64  47  53 SW9       30.19R
LAFAYETTE      CLEAR     64  41  42 SW13      30.19S
PATTERSON      CLEAR     63  46  55 W10       30.24R
SALT POINT       N/A     64  54  69 W3        30.21R
NEW IBERIA     CLEAR     64  42  44 SW10      30.21R
CHENAULT AIRPK CLEAR     64  46  52 SW16      30.20R

$$

LAZ027-028-270000-
CENTRAL LOUISIANA

CITY           SKY/WX    TMP DP  RH WIND       PRES   REMARKS
FORT POLK      CLEAR     65  40  39 W6        30.16R
ALEXANDRIA INT CLEAR     65  39  38 W7        30.14R
ALEXANDRIA     CLEAR     65  37  35 W8        30.15R

$$

LAZ001-002-270000-
NORTHWEST LOUISIANA

CITY           SKY/WX    TMP DP  RH WIND       PRES   REMARKS
SHREVEPORT     PTCLDY    61  33  35 W8        30.14R
BARKSDALE AFB  CLEAR     64  31  29 W9        30.15R
DTN SHREVEPORT CLEAR     63  29  27 W7        30.15R

$$

LAZ014-016-270000-
NORTHEAST LOUISIANA

CITY           SKY/WX    TMP DP  RH WIND       PRES   REMARKS
MONROE         CLEAR     63  33  32 W14       30.11R
TALLULAH       CLEAR     63  38  39 VRB6      30.10R

$$




USA.gov is the U.S. government's official web portal to all federal, state and local government web resources and services.